Location: Bad Rothenbrunn
(47.2167°N, 11.2167°E)
Time: 17:26:58
(UTC+00:00)

Cosmos 2278 Rocket - Pass Details

Date: 03 March 2021
Orbit: 842 x 845 km, 71.0° (Epoch: 19 April)

Event Time Altitude Azimuth Distance (km) Brightness Sun altitude
Rises 20:23:50 0° 330° (NNW) 3,414 6.2 -33.6°
Reaches altitude 10° 20:26:18 10° 327° (NNW) 2,475 5.3 -34.0°
Enters shadow 20:30:17 43° 304° (NW) 1,166 3.2 -34.5°
